Zurück zum Katalog

FENGYUN 1C DEB

AktivLEO
NORAD 29954·DEBRIS·🇨🇳 China

Gestartet May 10, 1999 von Taiyuan Satellite Launch Center

Loading…

Nächste Überflüge (nächste 24 Stunden)

TLE

AktuellSource: Space-Track

Epoche: Sep 14, 2026, 17:15 UTC

1 29954U 99025KC  26257.71936011  .00001747  00000-0  61018-3 0  9992
2 29954 100.1292 348.3558 0073826 210.9364 148.7457 14.35346571 21427

Verfolge FENGYUN 1C DEB in Echtzeit mit AllMySat

Download on the App Store